sat.trackr.live / text

‹ back to catalog

ASTROCAST-0101

NORAD 47430 · 2021-006T

PAYLOAD ACTIVE UNKNOWN

§ Identity

Operator
Country
SWTZ
Launch date
2021-01-24
Launch site
AFETR
Launch vehicle
Mass (kg)
RCS (m²)

External: N2YO · Heavens-Above · Gunter

§ Orbital elements

Epoch: 2026-05-25T03:12:32.904288Z

Period
91.37 min
Inclination
97.2295°
Eccentricity
0.0003578
Mean motion
15.76079794 rev/d
Perigee alt
339.2 km
Apogee alt
344.0 km
Semi-major
6,719.7 km
B*
1.4341e-3
RAAN
212.8610°
Arg perigee
235.2909°
Mean anomaly
124.8020°
Rev number
29,631

§ Raw data

ASTROCAST-01011 47430U 21006T   26145.13371417  .00228274  00000+0  14341-2 0  99912 47430  97.2295 212.8610 0003578 235.2909 124.8020 15.76079794296310

JSON: /api/v1/satellites/47430 · /tle

For live sub-satellite position, see the globe view (requires WebGL).

§ Visibility from observer

Set your observer location to see the next 7 days of passes ≥ 10°. The values pass through the URL so the page stays shareable.

No JS? Fill the form by hand. The geolocation button needs JavaScript.

§ Radio — SatNOGS DB

ModeDescriptionDownlinkUplink
QPSK L-band telemetry 1.531 GHz

1 transmitter · refreshed weekly from db.satnogs.org